Location: Warszawa
(52.2500°N, 21.0000°E)
Time: 08:32:09
(UTC+01:00)

BlueWalker 3 - Visible Passes

Search period start: 01 December 2023 00:00
Search period end: 11 December 2023 00:00
Orbit: 489 x 504 km, 53.2° (Epoch: 29 November)

Date Brightness Start Highest point End Pass type
(mag) Time Alt. Az. Time Alt. Az. Time Alt. Az.
01 Dec 4.6 03:49:34 18° E 03:49:34 18° E 03:50:41 10° E visible
01 Dec 2.7 05:24:08 33° WSW 05:25:02 38° SSW 05:28:36 10° SE visible
02 Dec 5.3 03:28:01 10° E 03:28:01 10° E 03:28:04 10° E visible
02 Dec 2.7 05:02:34 38° SSW 05:02:34 38° SSW 05:06:00 10° SE visible
03 Dec 3.4 04:41:03 29° SSE 04:41:03 29° SSE 04:43:22 10° SE visible
04 Dec 4.3 04:19:35 18° SSE 04:19:35 18° SSE 04:20:44 10° SE visible
